Regional Weather Roundup
Issued by NWS

Home | Current Version | Previous Version | Graphics & Text | Print | Product List | Glossary On
Versions: 1 2 3 4 5 6 7 8 9 10 11 12 13 14 15 16 17 18 19 20 21 22 23 24 25 26 27 28 29 30 31 32 33 34 35 36 37 38 39 40 41 42 43 44 45 46 47 48 49 50
000
ASUS45 KSLC 262210
RWRUT

UTAH REGIONAL WEATHER ROUNDUP
NATIONAL WEATHER SERVICE SALT LAKE CITY UT
300 PM MST MON JAN 26 2015

UTZ001>011-023>025-262300-

NORTHERN UTAH

CITY           SKY/WX    TMP DP  RH WIND       PRES   REMARKS
BRIGHAM CITY   SUNNY     50  34  54 NW3       30.25F
HILL AFB       SUNNY     49  27  41 NW8       30.23F
LOGAN          SUNNY     44  35  70 CALM      30.26F
OGDEN          SUNNY     50  34  54 NW8       30.23F
PROVO AIRPORT  NOT AVBL
SALT LAKE CITY SUNNY     50  35  56 NW5       30.23F
VERNAL         SUNNY     47  24  40 SE3       30.35F
WENDOVER       SUNNY     43  32  65 SE5       30.26S
HEBER CITY     SUNNY     45  30  57 CALM      30.26F
WEST JORDAN    SUNNY     48  36  61 CALM      30.24F

$$

UTZ012>022-026-027-262300-

SOUTHERN/CENTRAL UTAH

CITY           SKY/WX    TMP DP  RH WIND       PRES   REMARKS
BLANDING       SUNNY     55  25  31 S7        30.37S
BRYCE CANYON   MOSUNNY   50  25  37 S16G22    30.33S
CEDAR CITY     MOSUNNY   53  31  42 VRB3      30.22F
DELTA          SUNNY     50  34  55 SW5       30.24R
MILFORD        SUNNY     54  34  46 N9        30.22F
MOAB/CYNLANDS  SUNNY     51  29  42 NW8       30.26F
PRICE          SUNNY     57  23  26 SE6       30.27F
ST GEORGE      CLEAR     63  30  29 S5        30.16F
KANAB          PTSUNNY   57  27  30 NE12      30.27F

$$

REGIONAL REPORTS     COLORADO/ARIZONA

CITY           SKY/WX    TMP DP  RH WIND       PRES   REMARKS
CRAIG, CO      SUNNY     39  27  62 S5        30.35F
GRAND JUNCTION SUNNY     57  26  30 SE8       30.27F
RIFLE          SUNNY     54  25  32 SE5       30.31F
MONTROSE       SUNNY     56  23  27 N6        30.31F
CORTEZ         SUNNY     56  25  30 SW13      30.30R
PAGE, AZ       MOSUNNY   53  25  33 NE3       30.26F
GRAND CANYON   MOSUNNY   55  24  30 NE14      30.26F
KINGMAN        CLOUDY    64  23  21 SW16      30.15R
FLAGSTAFF      PTSUNNY   54  25  32 E7        30.27F

$$

REGIONAL REPORTS    NEVADA/IDAHO/WYOMING

CITY           SKY/WX    TMP DP  RH WIND       PRES   REMARKS
LAS VEGAS, NV  PTSUNNY   69  30  23 S5        30.06F
ELY            SUNNY     57  25  29 NE7       30.22F
ELKO           SUNNY     62  32  32 CALM      30.15F
POCATELLO, ID  SUNNY     48  38  68 E10       30.26F
BURLEY         SUNNY     48  35  60 NE17G23   30.19F
EVANSTON, WY   MOSUNNY   49  31  49 CALM      30.31F
ROCK SPRINGS   SUNNY     53  28  38 N5        30.32F
KEMMERER       SUNNY     50  27  40 N5        30.33S

$$



USA.gov is the U.S. government's official web portal to all federal, state and local government web resources and services.